period_start,C,m1,H,J0,J1,J2,J3,J4,J5,JA,JB,JC,JD,JJ,JK,JN,#
2017-06-26 00:02:36,0.01,0.16,0.00,29.97,33.54,35.86,13.38,41.23,1008.81,2005.62,3440.03,3017.13,3444.80,599.71,577.63,13.96,0000 0000 0000 0000 000000
2017-06-26 00:07:38,-0.01,0.16,0.00,30.01,33.57,35.87,13.47,41.23,1008.81,2005.29,3439.14,3016.87,3444.04,600.16,577.89,14.02,0000 0000 0000 0000 000000
2017-06-26 00:12:39,0.03,0.16,0.00,30.03,33.60,35.91,13.35,41.23,1008.80,2005.02,3438.25,3016.10,3443.33,599.71,577.46,14.07,0000 0000 0000 0000 000000
2017-06-26 00:17:40,0.03,0.16,0.00,30.06,33.63,35.94,13.45,41.24,1008.80,2005.00,3437.21,3015.74,3442.71,600.25,577.69,14.12,0000 0000 0000 0000 000000
2017-06-26 00:22:41,0.03,0.16,0.00,30.09,33.66,35.97,13.33,41.12,1008.80,2005.00,3436.30,3015.05,3441.97,599.91,577.60,14.17,0000 0000 0000 0000 000000
2017-06-26 00:27:42,0.04,0.17,0.00,30.12,33.69,35.99,13.43,41.20,1008.80,2004.99,3435.32,3014.63,3441.23,599.97,577.55,14.22,0000 0000 0000 0000 000000
2017-06-26 00:32:44,0.03,0.17,0.00,30.15,33.72,36.02,13.47,41.30,1008.78,2004.94,3434.28,3014.02,3440.59,600.32,577.77,14.27,0000 0000 0000 0000 000000
2017-06-26 00:37:45,0.03,0.17,0.00,30.17,33.75,36.05,13.40,41.26,1008.65,2004.84,3433.37,3013.49,3439.93,600.06,577.44,14.32,0000 0000 0000 0000 000000
2017-06-26 00:42:46,-0.01,0.17,0.00,30.20,33.78,36.08,13.40,41.18,1008.50,2004.42,3432.25,3012.97,3439.11,599.79,577.04,14.37,0000 0000 0000 0000 000000
2017-06-26 00:47:47,0.03,0.17,0.00,30.23,33.81,36.12,13.38,41.18,1008.38,2004.15,3431.18,3012.23,3438.28,599.83,576.93,14.42,0000 0000 0000 0000 000000
2017-06-26 00:52:49,0.03,0.17,0.00,30.27,33.84,36.14,13.29,41.27,1008.33,2004.02,3430.10,3011.80,3437.61,600.02,577.11,14.47,0000 0000 0000 0000 000000
2017-06-26 00:57:50,0.05,0.18,0.00,30.31,33.87,36.16,13.37,41.24,1008.33,2004.00,3428.94,3010.97,3436.77,600.14,576.97,14.52,0000 0000 0000 0000 000000
2017-06-26 01:02:51,0.06,0.18,0.00,30.35,33.90,36.20,13.40,41.15,1008.34,2004.00,3427.54,3010.08,3435.58,599.90,576.74,14.57,0000 0000 0000 0000 000000
2017-06-26 01:07:52,0.05,0.18,0.00,30.38,33.93,36.23,13.33,41.23,1008.35,2003.98,3426.34,3009.37,3434.71,599.78,576.61,14.62,0000 0000 0000 0000 000000
2017-06-26 01:12:53,0.03,0.18,0.00,30.43,33.96,36.26,13.37,41.29,1008.34,2003.95,3425.23,3008.87,3433.87,600.01,576.82,14.67,0000 0000 0000 0000 000000
2017-06-26 01:17:54,0.03,0.19,0.00,30.47,34.00,36.29,13.31,41.27,1008.33,2003.79,3424.06,3008.09,3433.01,599.96,576.64,14.72,0000 0000 0000 0000 000000
2017-06-26 01:22:55,0.02,0.19,0.00,30.51,34.03,36.33,13.35,41.13,1008.34,2003.41,3422.71,3007.48,3432.06,600.28,576.69,14.77,0000 0000 0000 0000 000000
2017-06-26 01:27:57,0.03,0.19,0.00,30.57,34.06,36.35,13.31,41.16,1008.34,2003.05,3421.33,3006.81,3431.07,599.86,576.30,14.82,0000 0000 0000 0000 000000
2017-06-26 01:32:57,0.04,0.19,0.00,30.62,34.10,36.38,13.34,41.28,1008.34,2003.01,3420.05,3006.06,3430.18,599.97,576.33,14.87,0000 0000 0000 0000 000000
2017-06-26 01:37:59,0.06,0.19,0.00,30.66,34.13,36.43,13.37,41.25,1008.36,2003.00,3418.77,3005.35,3429.28,599.89,576.18,14.92,0000 0000 0000 0000 000000
2017-06-26 01:43:00,0.05,0.19,0.00,30.71,34.17,36.45,13.29,41.25,1008.35,2002.99,3417.46,3004.63,3428.37,599.99,576.15,14.97,0000 0000 0000 0000 000000
2017-06-26 01:48:01,0.04,0.20,0.00,30.77,34.21,36.49,13.32,41.30,1008.34,2002.95,3416.19,3003.92,3427.33,599.81,575.88,15.02,0000 0000 0000 0000 000000
2017-06-26 01:53:02,0.02,0.20,0.00,30.81,34.24,36.53,13.32,41.17,1008.35,2002.66,3414.80,3003.08,3426.50,600.14,576.11,15.07,0000 0000 0000 0000 000000
2017-06-26 01:58:04,0.02,0.20,0.00,30.86,34.28,36.57,13.35,41.22,1008.35,2002.06,3413.34,3002.17,3425.27,600.29,576.22,15.12,0000 0000 0000 0000 000000
2017-06-26 02:03:05,0.06,0.20,0.00,30.91,34.32,36.61,13.36,41.35,1008.33,2002.01,3411.98,3001.34,3424.25,599.92,575.61,15.17,0000 0000 0000 0000 000000
2017-06-26 02:08:06,0.05,0.20,0.00,30.96,34.36,36.66,13.40,41.34,1008.33,2002.00,3410.58,3000.62,3423.33,600.58,576.27,15.22,0000 0000 0000 0000 000000
2017-06-26 02:13:08,0.05,0.21,0.00,31.01,34.41,36.70,13.33,41.28,1008.33,2001.98,3409.24,2999.78,3422.21,600.06,575.67,15.27,0000 0000 0000 0000 000000
2017-06-26 02:18:09,0.03,0.21,0.00,31.06,34.45,36.74,13.35,41.38,1008.33,2001.74,3407.74,2998.92,3421.12,599.90,575.36,15.32,0000 0000 0000 0000 000000
2017-06-26 02:23:10,0.02,0.21,0.00,31.12,34.49,36.78,13.39,41.36,1008.33,2001.16,3406.12,2997.90,3419.84,600.01,575.43,15.37,0000 0000 0000 0000 000000
2017-06-26 02:28:12,0.06,0.21,0.00,31.17,34.53,36.82,13.31,41.23,1008.33,2001.00,3404.47,2996.98,3418.67,600.02,575.32,15.42,0000 0000 0000 0000 000000
2017-06-26 02:33:13,0.06,0.22,0.00,31.22,34.57,36.87,13.35,41.35,1008.34,2001.00,3403.18,2996.11,3417.59,600.25,575.49,15.47,0000 0000 0000 0000 000000
2017-06-26 02:38:15,0.06,0.22,0.00,31.26,34.61,36.91,13.30,41.36,1008.35,2000.96,3401.59,2995.23,3416.49,599.94,575.06,15.52,0000 0000 0000 0000 000000
2017-06-26 02:43:16,0.01,0.22,0.00,31.31,34.66,36.96,13.29,41.40,1008.36,2000.57,3400.10,2994.32,3415.37,599.89,574.83,15.57,0000 0000 0000 0000 000000
2017-06-26 02:48:17,0.03,0.22,0.00,31.37,34.70,37.00,13.33,41.38,1008.45,2000.10,3398.67,2993.41,3414.27,599.89,574.89,15.62,0000 0000 0000 0000 000000
2017-06-26 02:53:19,0.06,0.22,0.00,31.42,34.75,37.06,13.34,41.23,1008.64,2000.01,3397.16,2992.59,3413.19,600.10,575.09,15.67,0000 0000 0000 0000 000000
2017-06-26 02:58:20,0.06,0.23,0.00,31.47,34.79,37.11,13.30,41.14,1008.70,2000.00,3395.55,2991.69,3412.00,600.23,575.16,15.72,0000 0000 0000 0000 000000
2017-06-26 03:03:21,0.05,0.23,0.00,31.52,34.84,37.15,13.33,41.28,1008.72,1999.95,3394.14,2990.74,3410.88,600.20,575.06,15.77,0000 0000 0000 0000 000000
2017-06-26 03:08:22,0.01,0.23,0.00,31.57,34.89,37.20,13.30,41.29,1008.76,1999.65,3392.77,2989.90,3409.87,599.72,574.39,15.82,0000 0000 0000 0000 000000
2017-06-26 03:13:23,0.02,0.23,0.00,31.62,34.94,37.25,13.35,41.27,1008.79,1999.09,3391.30,2989.00,3408.70,599.97,574.69,15.87,0000 0000 0000 0000 000000
2017-06-26 03:18:25,0.05,0.24,0.00,31.67,34.98,37.29,13.30,41.27,1008.80,1999.00,3389.99,2988.12,3407.68,599.88,574.49,15.92,0000 0000 0000 0000 000000
2017-06-26 03:23:26,0.06,0.24,0.00,31.73,35.03,37.34,13.23,41.33,1008.80,1999.00,3388.63,2987.23,3406.60,599.76,574.36,15.97,0000 0000 0000 0000 000000
2017-06-26 03:28:27,0.05,0.24,0.00,31.78,35.08,37.39,13.30,41.30,1008.80,1998.92,3387.27,2986.41,3405.64,600.02,574.53,16.02,0000 0000 0000 0000 000000
2017-06-26 03:33:29,0.04,0.24,0.00,31.84,35.13,37.44,13.26,41.23,1008.80,1998.72,3385.83,2985.59,3404.54,600.09,574.38,16.07,0000 0000 0000 0000 000000
2017-06-26 03:38:30,0.01,0.25,0.00,31.89,35.18,37.49,13.27,41.24,1008.80,1998.17,3384.28,2984.60,3403.38,599.97,574.32,16.12,0000 0000 0000 0000 000000
2017-06-26 03:43:31,0.07,0.25,0.00,31.94,35.23,37.54,13.27,41.21,1008.81,1998.00,3382.67,2983.52,3402.04,599.92,574.05,16.17,0000 0000 0000 0000 000000
2017-06-26 03:48:32,0.07,0.25,0.00,32.00,35.28,37.59,13.31,41.21,1008.81,1997.98,3381.00,2982.43,3400.77,600.09,574.06,16.22,0000 0000 0000 0000 000000
2017-06-26 03:53:34,0.03,0.25,0.00,32.06,35.33,37.63,13.26,41.09,1008.82,1997.70,3379.27,2981.47,3399.57,599.86,573.75,16.27,0000 0000 0000 0000 000000
2017-06-26 03:58:35,0.03,0.25,0.00,32.12,35.38,37.69,13.23,41.08,1008.81,1997.12,3377.57,2980.35,3398.26,599.86,573.64,16.32,0000 0000 0000 0000 000000
2017-06-26 04:03:36,0.07,0.26,0.00,32.17,35.43,37.73,13.34,40.98,1008.81,1997.00,3375.85,2979.24,3396.80,600.21,573.93,16.37,0000 0000 0000 0000 000000
2017-06-26 04:08:37,0.07,0.26,0.00,32.23,35.48,37.79,13.26,40.95,1008.83,1997.00,3374.14,2978.17,3395.58,599.93,573.53,16.42,0000 0000 0000 0000 000000
2017-06-26 04:13:38,0.06,0.27,0.00,32.28,35.54,37.84,13.25,41.13,1008.84,1996.93,3372.62,2977.15,3394.43,599.84,573.40,16.47,0000 0000 0000 0000 000000
2017-06-26 04:18:40,0.01,0.27,0.00,32.33,35.59,37.90,13.23,41.05,1008.82,1996.28,3370.73,2975.94,3392.90,599.80,573.29,16.52,0000 0000 0000 0000 000000
2017-06-26 04:23:41,0.08,0.27,0.00,32.39,35.64,37.95,13.28,41.08,1008.82,1996.02,3368.79,2974.66,3391.47,599.71,573.02,16.57,0000 0000 0000 0000 000000
2017-06-26 04:28:42,0.08,0.27,0.00,32.45,35.70,38.00,13.30,40.99,1008.85,1995.99,3366.75,2973.37,3389.99,600.02,573.21,16.63,0000 0000 0000 0000 000000
2017-06-26 04:33:43,0.05,0.28,0.00,32.50,35.75,38.05,13.22,41.11,1008.90,1995.70,3364.63,2971.97,3388.46,599.81,572.97,16.68,0000 0000 0000 0000 000000
2017-06-26 04:38:45,0.05,0.28,0.00,32.56,35.81,38.11,13.28,41.20,1009.00,1995.12,3362.57,2970.63,3386.81,599.97,573.07,16.73,0000 0000 0000 0000 000000
2017-06-26 04:43:46,0.08,0.28,0.00,32.61,35.86,38.16,13.21,41.10,1009.06,1995.00,3360.49,2969.35,3385.23,599.72,572.69,16.78,0000 0000 0000 0000 000000
2017-06-26 04:48:47,0.08,0.29,0.00,32.67,35.91,38.21,13.25,40.96,1009.20,1994.95,3358.44,2968.04,3383.69,599.87,572.84,16.83,0000 0000 0000 0000 000000
2017-06-26 04:53:49,0.03,0.29,0.00,32.73,35.97,38.27,13.31,41.02,1009.29,1994.48,3356.31,2966.71,3382.02,600.19,573.08,16.88,0000 0000 0000 0000 000000
2017-06-26 04:58:50,0.06,0.29,0.00,32.77,36.02,38.32,13.25,40.93,1009.29,1994.02,3354.32,2965.43,3380.49,599.76,572.70,16.93,0000 0000 0000 0000 000000
2017-06-26 05:03:51,0.09,0.30,0.00,32.83,36.08,38.38,13.26,40.93,1009.29,1994.00,3352.09,2964.04,3378.85,599.93,572.66,16.98,0000 0000 0000 0000 000000
2017-06-26 05:08:53,0.09,0.30,0.00,32.88,36.13,38.43,13.25,41.02,1009.29,1993.90,3350.02,2962.67,3377.26,599.97,572.60,17.03,0000 0000 0000 0000 000000
2017-06-26 05:13:54,0.03,0.30,0.00,32.93,36.19,38.48,13.28,40.99,1009.29,1993.32,3347.92,2961.38,3375.61,600.02,572.53,17.08,0000 0000 0000 0000 000000
2017-06-26 05:18:55,0.08,0.31,0.00,32.99,36.24,38.53,13.28,40.88,1009.29,1993.03,3345.78,2959.98,3373.96,599.95,572.45,17.13,0000 0000 0000 0000 000000
2017-06-26 05:23:56,0.10,0.31,0.00,33.04,36.30,38.59,13.23,40.91,1009.35,1993.00,3343.39,2958.59,3372.40,599.92,572.30,17.18,0000 0000 0000 0000 000000
2017-06-26 05:28:58,0.03,0.32,0.00,33.05,36.35,38.64,13.18,40.88,1009.43,1992.92,3341.98,2957.60,3371.13,599.80,572.27,17.23,0000 0000 0000 0000 000000
2017-06-26 05:33:59,0.05,0.32,0.00,33.01,36.40,38.70,13.25,41.02,1009.31,1992.73,3340.58,2956.66,3370.02,600.08,572.42,17.28,0000 0000 0000 0000 000000
2017-06-26 05:39:00,0.00,0.32,0.00,32.98,36.45,38.76,13.27,40.98,1009.32,1992.20,3339.22,2955.78,3368.96,600.00,572.44,17.33,0000 0000 0000 0000 000000
2017-06-26 05:44:01,0.04,0.32,0.00,32.93,36.49,38.80,13.33,40.93,1009.36,1992.01,3338.02,2954.88,3367.98,600.04,572.64,17.38,0000 0000 0000 0000 000000
2017-06-26 05:49:03,0.04,0.32,0.00,32.85,36.53,38.83,13.26,40.88,1009.64,1992.00,3337.00,2954.07,3367.08,600.06,572.97,17.43,0000 0000 0000 0000 000000
2017-06-26 05:54:04,0.03,0.33,0.00,32.73,36.56,38.88,13.29,41.00,1009.72,1991.94,3336.15,2953.60,3366.42,600.04,573.20,17.48,0000 0000 0000 0000 000000
2017-06-26 05:59:06,-0.00,0.33,0.00,32.54,36.58,38.92,13.25,40.91,1009.77,1991.60,3335.22,2953.01,3365.89,599.58,573.16,17.53,0000 0000 0000 0000 000000
2017-06-26 06:04:07,0.01,0.33,0.00,32.37,36.60,38.95,13.35,40.92,1009.78,1991.26,3334.21,2952.49,3365.10,600.06,573.92,17.58,0000 0000 0000 0000 000000
2017-06-26 06:09:08,0.02,0.33,0.00,32.19,36.60,39.01,13.39,40.87,1009.78,1991.13,3333.46,2952.02,3364.79,600.01,574.29,17.63,0000 0000 0000 0000 000000
2017-06-26 06:14:10,0.02,0.33,0.00,32.05,36.58,39.09,13.35,40.97,1009.78,1991.14,3332.82,2952.00,3364.10,600.15,574.56,17.68,0000 0000 0000 0000 000000
2017-06-26 06:19:11,0.02,0.33,0.00,31.93,36.57,39.12,13.42,41.02,1009.78,1991.19,3332.03,2951.86,3364.00,600.20,574.94,17.73,0000 0000 0000 0000 000000
2017-06-26 06:24:12,0.06,0.33,0.00,31.81,36.54,39.05,13.37,40.90,1009.78,1991.41,3331.28,2951.32,3363.72,599.74,574.61,17.78,0000 0000 0000 0000 000000
2017-06-26 06:29:13,0.03,0.33,0.00,31.68,36.50,38.97,13.37,40.98,1009.78,1991.79,3330.94,2951.10,3363.22,599.64,574.85,17.83,0000 0000 0000 0000 000000
2017-06-26 06:34:14,0.03,0.34,0.00,31.59,36.45,38.87,13.34,40.93,1009.79,1991.96,3330.28,2951.03,3363.04,599.61,574.99,17.88,0000 0000 0000 0000 000000
2017-06-26 06:39:16,0.00,0.34,0.00,31.50,36.40,38.77,13.45,40.92,1009.79,1991.99,3329.97,2951.01,3363.00,599.98,575.52,17.93,0000 0000 0000 0000 000000
2017-06-26 06:44:17,0.01,0.34,0.00,31.43,36.35,38.67,13.44,40.88,1009.82,1992.00,3329.32,2951.00,3363.00,600.12,575.89,17.98,0000 0000 0000 0000 000000
2017-06-26 06:49:18,0.02,0.34,0.00,31.33,36.29,38.61,13.36,40.92,1009.80,1992.09,3329.03,2951.01,3363.00,599.95,575.79,18.03,0000 0000 0000 0000 000000
2017-06-26 06:54:20,0.06,0.34,0.00,31.36,36.24,38.53,13.43,41.01,1009.79,1992.65,3328.97,2951.01,3362.99,600.50,576.33,18.08,0000 0000 0000 0000 000000
2017-06-26 06:59:21,0.02,0.34,0.00,31.44,36.19,38.46,13.40,41.00,1009.78,1992.95,3328.62,2951.02,3362.99,600.09,575.67,18.13,0000 0000 0000 0000 000000
2017-06-26 07:04:22,0.01,0.34,0.00,31.55,36.15,38.45,13.37,41.09,1009.78,1992.99,3328.13,2951.02,3362.99,599.83,575.27,18.18,0000 0000 0000 0000 000000
2017-06-26 07:09:24,0.00,0.34,0.00,31.67,36.11,38.38,13.31,41.04,1009.78,1993.00,3327.97,2951.00,3362.86,599.87,575.13,18.23,0000 0000 0000 0000 000000
2017-06-26 07:14:25,0.04,0.34,0.00,31.79,36.09,38.26,13.36,41.01,1009.78,1993.18,3327.45,2951.00,3362.48,599.82,574.82,18.28,0000 0000 0000 0000 000000
2017-06-26 07:19:27,0.04,0.35,0.00,31.91,36.06,38.19,13.35,41.02,1009.78,1993.62,3327.06,2950.97,3362.15,600.15,574.90,18.33,0000 0000 0000 0000 000000
2017-06-26 07:24:28,0.03,0.35,0.00,32.02,36.05,38.15,13.31,40.98,1009.78,1993.75,3326.96,2950.67,3362.00,599.91,574.49,18.38,0000 0000 0000 0000 000000
2017-06-26 07:29:29,0.03,0.35,0.00,32.14,36.05,38.12,13.32,40.88,1009.78,1993.79,3326.21,2950.13,3361.80,599.99,574.31,18.43,0000 0000 0000 0000 000000
2017-06-26 07:34:31,0.01,0.35,0.00,32.24,36.05,38.13,13.28,40.89,1009.79,1993.78,3325.92,2950.00,3361.15,600.10,574.17,18.48,0000 0000 0000 0000 000000
2017-06-26 07:39:32,-0.00,0.35,0.00,32.34,36.05,38.14,13.30,40.92,1009.78,1993.56,3325.14,2949.81,3360.95,600.08,574.03,18.53,0000 0000 0000 0000 000000
2017-06-26 07:44:34,0.01,0.35,0.00,32.44,36.07,38.16,13.23,40.91,1009.78,1993.33,3324.94,2949.16,3360.44,599.90,573.74,18.58,0000 0000 0000 0000 000000
2017-06-26 07:49:35,-0.00,0.35,0.00,32.54,36.09,38.20,13.26,40.84,1009.78,1993.12,3324.24,2949.00,3360.02,599.93,573.50,18.63,0000 0000 0000 0000 000000
2017-06-26 07:54:36,0.01,0.35,0.00,32.63,36.11,38.25,13.21,41.03,1009.79,1993.04,3323.97,2948.80,3359.72,599.97,573.36,18.68,0000 0000 0000 0000 000000
2017-06-26 07:59:37,0.03,0.35,0.00,32.71,36.14,38.29,13.25,40.89,1009.79,1993.00,3323.25,2948.13,3359.06,599.99,573.15,18.73,0000 0000 0000 0000 000000
2017-06-26 08:04:39,0.03,0.36,0.00,32.79,36.16,38.34,13.31,40.91,1009.86,1992.99,3322.42,2947.83,3358.38,600.19,573.35,18.78,0000 0000 0000 0000 000000
2017-06-26 08:09:40,0.05,0.36,0.00,32.87,36.19,38.39,13.33,40.88,1010.01,1992.95,3321.58,2946.83,3357.62,600.15,573.30,18.83,0000 0000 0000 0000 000000
2017-06-26 08:14:41,0.03,0.36,0.00,32.94,36.23,38.44,13.26,41.05,1009.86,1992.74,3320.11,2946.00,3356.17,600.35,573.19,18.88,0000 0000 0000 0000 000000
2017-06-26 08:19:43,0.00,0.36,0.00,33.00,36.26,38.49,13.22,40.94,1009.92,1992.29,3319.38,2945.35,3355.43,599.97,572.74,18.93,0000 0000 0000 0000 000000
2017-06-26 08:24:44,0.02,0.36,0.00,33.02,36.30,38.56,13.27,40.99,1009.90,1992.03,3318.36,2944.70,3354.58,600.11,572.73,18.98,0000 0000 0000 0000 000000
2017-06-26 08:29:45,0.02,0.36,0.00,33.03,36.34,38.60,13.32,41.09,1010.20,1992.00,3317.66,2944.03,3353.96,600.09,573.08,19.03,0000 0000 0000 0000 000000
2017-06-26 08:34:46,0.04,0.37,0.00,33.07,36.38,38.65,13.29,41.28,1010.26,1992.00,3316.78,2943.73,3353.17,599.88,572.72,19.08,0000 0000 0000 0000 000000
2017-06-26 08:39:48,0.03,0.37,0.00,33.12,36.42,38.70,13.23,41.14,1010.14,1991.93,3315.97,2943.06,3352.55,599.74,572.45,19.13,0000 0000 0000 0000 000000
2017-06-26 08:44:49,-0.02,0.37,0.00,33.17,36.46,38.73,13.23,41.20,1009.99,1991.33,3315.09,2942.47,3351.84,599.77,572.38,19.18,0000 0000 0000 0000 000000
2017-06-26 08:49:50,0.02,0.37,0.00,33.22,36.50,38.78,13.25,41.13,1010.07,1991.05,3314.22,2942.00,3351.08,600.19,572.62,19.23,0000 0000 0000 0000 000000
2017-06-26 08:54:51,0.04,0.37,0.00,33.26,36.54,38.83,13.25,41.14,1010.16,1991.00,3313.50,2941.51,3350.47,599.87,572.29,19.28,0000 0000 0000 0000 000000
2017-06-26 08:59:52,0.02,0.37,0.00,33.30,36.58,38.87,13.24,41.08,1010.24,1991.00,3312.62,2940.99,3349.78,599.95,572.35,19.33,0000 0000 0000 0000 000000
2017-06-26 09:04:54,0.02,0.37,0.00,33.32,36.62,38.91,13.26,41.00,1010.11,1990.91,3311.88,2940.34,3349.03,599.98,572.27,19.38,0000 0000 0000 0000 000000
2017-06-26 09:09:55,-0.01,0.37,0.00,33.34,36.66,38.95,13.24,40.90,1009.86,1990.45,3311.07,2939.97,3348.38,600.13,572.21,19.43,0000 0000 0000 0000 000000
2017-06-26 09:14:56,0.02,0.37,0.00,33.37,36.70,39.00,13.23,40.87,1010.00,1990.15,3310.17,2939.29,3347.64,599.94,572.07,19.48,0000 0000 0000 0000 000000
2017-06-26 09:19:57,0.03,0.37,0.00,33.41,36.74,39.04,13.27,40.79,1009.97,1990.01,3309.16,2938.70,3346.88,600.09,572.11,19.53,0000 0000 0000 0000 000000
2017-06-26 09:24:59,0.03,0.38,0.00,33.46,36.78,39.08,13.18,40.83,1009.92,1990.00,3308.34,2938.03,3346.07,599.85,571.65,19.58,0000 0000 0000 0000 000000
2017-06-26 09:30:00,0.03,0.38,0.00,33.50,36.82,39.12,13.24,40.77,1009.92,1989.87,3307.52,2937.51,3345.30,600.02,571.98,19.63,0000 0000 0000 0000 000000
2017-06-26 09:35:01,-0.03,0.38,0.00,33.53,36.86,39.16,13.28,40.80,1009.88,1989.37,3306.86,2936.99,3344.74,599.96,571.72,19.68,0000 0000 0000 0000 000000
2017-06-26 09:40:02,0.03,0.38,0.00,33.55,36.90,39.21,13.26,40.87,1009.82,1989.04,3305.87,2936.30,3343.96,600.28,571.97,19.73,0000 0000 0000 0000 000000
2017-06-26 09:45:03,0.03,0.38,0.00,33.57,36.94,39.24,13.18,40.87,1009.82,1989.00,3304.95,2935.92,3343.10,600.05,571.80,19.78,0000 0000 0000 0000 000000
2017-06-26 09:50:05,0.05,0.38,0.00,33.60,36.98,39.28,13.22,40.79,1009.81,1989.00,3304.09,2935.20,3342.48,599.80,571.37,19.83,0000 0000 0000 0000 000000
2017-06-26 09:55:06,0.03,0.38,0.00,33.63,37.02,39.32,13.19,40.73,1009.81,1988.98,3303.28,2934.79,3341.76,600.06,571.56,19.88,0000 0000 0000 0000 000000
2017-06-26 10:00:07,0.02,0.39,0.00,33.68,37.06,39.36,13.25,40.77,1009.79,1988.81,3302.15,2934.04,3340.94,599.87,571.34,19.93,0000 0000 0000 0000 000000
2017-06-26 10:05:08,0.01,0.39,0.00,33.75,37.10,39.39,13.21,40.80,1009.80,1988.49,3301.24,2933.48,3340.13,600.06,571.23,19.98,0000 0000 0000 0000 000000
2017-06-26 10:10:09,0.01,0.39,0.00,33.82,37.14,39.42,13.18,40.79,1009.82,1988.07,3300.29,2932.90,3339.27,599.90,571.08,20.03,0000 0000 0000 0000 000000
2017-06-26 10:15:11,0.04,0.39,0.00,33.88,37.18,39.46,13.22,40.77,1009.82,1988.00,3299.58,2932.16,3338.65,600.18,571.26,20.08,0000 0000 0000 0000 000000
2017-06-26 10:20:12,0.04,0.39,0.00,33.92,37.23,39.51,13.22,40.83,1009.83,1987.99,3298.58,2931.56,3337.76,600.13,571.14,20.13,0000 0000 0000 0000 000000
2017-06-26 10:25:14,0.02,0.39,0.00,33.94,37.27,39.56,13.20,40.84,1009.87,1987.97,3297.76,2930.98,3336.97,599.91,570.86,20.18,0000 0000 0000 0000 000000
2017-06-26 10:30:15,0.01,0.39,0.00,34.00,37.32,39.60,13.18,40.71,1009.83,1987.62,3296.72,2930.17,3336.11,600.09,571.00,20.24,0000 0000 0000 0000 000000
2017-06-26 10:35:16,-0.01,0.39,0.00,34.05,37.36,39.65,13.21,40.78,1009.86,1987.06,3296.05,2929.84,3335.44,600.02,570.74,20.29,0000 0000 0000 0000 000000
2017-06-26 10:40:17,0.03,0.39,0.00,34.07,37.40,39.69,13.18,40.75,1009.80,1987.00,3295.43,2929.08,3334.80,599.67,570.46,20.34,0000 0000 0000 0000 000000
2017-06-26 10:45:18,0.04,0.40,0.00,34.11,37.44,39.73,13.20,40.67,1009.79,1986.99,3294.36,2928.53,3333.98,600.19,570.84,20.39,0000 0000 0000 0000 000000
2017-06-26 10:50:20,0.02,0.40,0.00,34.18,37.49,39.77,13.19,40.71,1009.78,1986.87,3293.43,2928.00,3333.15,599.68,570.13,20.44,0000 0000 0000 0000 000000
2017-06-26 10:55:21,0.01,0.40,0.00,34.28,37.52,39.82,13.20,40.73,1009.78,1986.46,3292.36,2927.32,3332.35,599.89,570.20,20.49,0000 0000 0000 0000 000000
2017-06-26 11:00:22,0.00,0.40,0.00,34.37,37.57,39.88,13.14,40.69,1009.78,1986.09,3291.60,2926.83,3331.69,599.56,569.73,20.54,0000 0000 0000 0000 000000
2017-06-26 11:05:23,0.04,0.40,0.00,34.40,37.61,39.94,13.21,40.69,1009.78,1986.00,3290.62,2926.07,3330.89,599.98,570.06,20.59,0000 0000 0000 0000 000000
2017-06-26 11:10:25,0.05,0.40,0.00,34.43,37.65,39.99,13.18,40.60,1009.78,1986.00,3289.68,2925.52,3330.01,599.83,569.87,20.64,0000 0000 0000 0000 000000
2017-06-26 11:15:26,0.03,0.40,0.00,34.49,37.70,40.04,13.21,40.63,1009.78,1985.93,3288.65,2924.86,3329.12,600.11,570.02,20.69,0000 0000 0000 0000 000000
2017-06-26 11:20:28,0.00,0.41,0.00,34.56,37.74,40.09,13.15,40.63,1009.78,1985.63,3287.85,2924.08,3328.46,600.08,569.81,20.74,0000 0000 0000 0000 000000
2017-06-26 11:25:29,0.03,0.41,0.00,34.62,37.78,40.16,13.15,40.66,1009.78,1985.10,3286.57,2923.36,3327.39,599.97,569.67,20.79,0000 0000 0000 0000 000000
2017-06-26 11:30:31,0.06,0.41,0.00,34.66,37.82,40.21,13.18,40.63,1009.78,1985.01,3285.05,2922.41,3326.36,600.24,569.83,20.84,0000 0000 0000 0000 000000
2017-06-26 11:35:32,0.07,0.41,0.00,34.68,37.87,40.23,13.18,40.67,1009.78,1985.00,3283.44,2921.19,3324.88,600.23,569.78,20.89,0000 0000 0000 0000 000000
2017-06-26 11:40:33,0.06,0.42,0.00,34.70,37.91,40.26,13.17,40.60,1009.78,1984.95,3282.00,2920.18,3323.70,600.24,569.75,20.94,0000 0000 0000 0000 000000
2017-06-26 11:45:35,-0.01,0.42,0.00,34.70,37.95,40.30,13.12,40.67,1009.78,1984.53,3280.96,2919.46,3322.82,599.73,569.23,20.99,0000 0000 0000 0000 000000
2017-06-26 11:50:37,0.00,0.42,0.00,34.67,37.99,40.34,13.20,40.72,1009.78,1984.06,3280.16,2918.93,3322.05,600.43,569.89,21.04,0000 0000 0000 0000 000000
2017-06-26 11:55:38,0.04,0.42,0.00,34.64,38.04,40.38,13.18,40.75,1009.78,1984.00,3279.61,2918.25,3321.53,599.93,569.64,21.09,0000 0000 0000 0000 000000
2017-06-26 12:00:39,0.04,0.42,0.00,34.61,38.07,40.41,13.22,40.70,1009.78,1984.00,3278.55,2917.75,3320.70,600.10,569.87,21.14,0000 0000 0000 0000 000000
2017-06-26 12:05:40,0.04,0.42,0.00,34.59,38.11,40.44,13.23,40.77,1009.78,1983.98,3277.49,2916.95,3319.82,600.07,569.93,21.19,0000 0000 0000 0000 000000
2017-06-26 12:10:41,0.04,0.43,0.00,34.55,38.14,40.45,13.26,40.77,1009.77,1983.80,3276.11,2915.96,3318.66,600.10,569.92,21.24,0000 0000 0000 0000 000000
2017-06-26 12:15:43,0.03,0.43,0.00,34.54,38.17,40.48,13.23,40.75,1009.77,1983.29,3274.34,2914.80,3317.32,600.03,569.90,21.29,0000 0000 0000 0000 000000
2017-06-26 12:20:44,0.07,0.43,0.00,34.52,38.20,40.51,13.21,40.92,1009.77,1983.03,3272.50,2913.60,3315.81,600.09,570.06,21.34,0000 0000 0000 0000 000000
2017-06-26 12:25:46,0.09,0.43,0.00,34.51,38.23,40.51,13.24,40.81,1009.78,1983.00,3270.48,2912.20,3314.19,599.79,569.72,21.39,0000 0000 0000 0000 000000
2017-06-26 12:30:47,0.11,0.44,0.00,34.50,38.25,40.51,13.21,40.72,1009.77,1983.00,3268.33,2910.66,3312.53,600.00,569.89,21.44,0000 0000 0000 0000 000000
2017-06-26 12:35:48,0.11,0.45,0.00,34.48,38.28,40.53,13.23,40.79,1009.77,1982.98,3265.86,2909.02,3310.63,600.22,570.18,21.49,0000 0000 0000 0000 000000
2017-06-26 12:40:50,0.12,0.45,0.00,34.49,38.29,40.54,13.25,40.92,1009.77,1982.94,3263.18,2907.13,3308.50,599.97,569.90,21.54,0000 0000 0000 0000 000000
2017-06-26 12:45:51,-0.00,0.46,0.00,34.49,38.31,40.54,13.18,40.86,1009.76,1982.39,3261.56,2905.96,3307.07,600.18,570.09,21.59,0000 0000 0000 0000 000000
2017-06-26 12:50:52,0.02,0.46,0.00,34.50,38.33,40.55,13.18,40.72,1009.72,1982.04,3261.00,2905.20,3306.45,599.78,569.72,21.64,0000 0000 0000 0000 000000
2017-06-26 12:55:53,0.02,0.46,0.00,34.49,38.34,40.57,13.23,40.73,1009.59,1982.00,3260.20,2904.87,3305.94,600.13,569.87,21.69,0000 0000 0000 0000 000000